Tracking 28794 objects as of 22-Apr-2024
HD Live streaming from Space Station
objects crossing your sky now

COSMOS 249 DEB

Track COSMOS 249 DEB now!
10-day predictions


NORAD ID: 14430
Int'l Code: 1968-091CV
Perigee: 756.0 km
Apogee: 1,809.3 km
Inclination: 62.2 °
Period: 111.1 minutes
Semi major axis: 7653 km
RCS: 0.0133 m2 (small)
Launch date: October 20, 1968
Source: Commonwealth of Independent States (former USSR) (CIS)
Launch site: TYURATAM MISSILE AND SPACE COMPLEX (TTMTR)

Note: This is SATELLITE DEBRIS
Your satellite tracking list
Your tracking list is empty




NASA's NSSDC Master Catalog

Two Line Element Set (TLE):
1 14430U 68091CV  24112.83873681  .00012365  00000-0  14424-1 0  9993
2 14430  62.2444  66.7506 0688060   2.9078  17.4058 12.96577637998666
Source of the keplerian elements: AFSPC